| time (UTC) | temp C | wind direction | speed KPH | gust KPH | rain 1hr cm | rain 24hr cm | rain mn cm | humidity % | barometer mb |
| 20260507000009 | 10 | 318 | 12.9 | 20.9 | 0.03 | 0.94 | 0.94 | 91 | 1005.7 |
| 20260506234505 | 10 | 301 | 3.2 | 14.5 | 0.05 | 0.94 | 0.94 | 91 | 1005.2 |
| 20260506233005 | 10 | 296 | 0.0 | 16.1 | 0.05 | 0.94 | 0.94 | 91 | 1005.2 |
| 20260506231503 | 11 | 298 | 4.8 | 17.7 | 0.05 | 0.94 | 0.94 | 91 | 1004.8 |
| 20260506230106 | 11 | 307 | 9.7 | 20.9 | 0.03 | 0.91 | 0.91 | 90 | 1004.6 |
| 20260506224600 | 12 | 306 | 6.4 | 19.3 | 0.00 | 0.89 | 0.89 | 90 | 1004.3 |
| 20260506223059 | 13 | 278 | 3.2 | 9.7 | 0.00 | 0.89 | 0.89 | 91 | 1004.1 |
| 20260506221601 | 13 | 283 | 4.8 | 16.1 | 0.03 | 0.89 | 0.89 | 91 | 1003.9 |
| 20260506220100 | 14 | 306 | 8.0 | 20.9 | 0.13 | 0.89 | 0.89 | 91 | 1003.8 |
| 20260506214601 | 15 | 308 | 14.5 | 19.3 | 0.23 | 1.09 | 0.89 | 92 | 1003.5 |
| 20260506213056 | 14 | 299 | 6.4 | 11.3 | 0.23 | 1.09 | 0.89 | 92 | 1003.4 |
| 20260506211608 | 15 | 285 | 0.0 | 0.0 | 0.23 | 1.07 | 0.86 | 92 | 1003.3 |
| 20260506210054 | 14 | 285 | 0.0 | 1.6 | 0.10 | 0.94 | 0.71 | 92 | 1003.4 |
| 20260506204553 | 15 | 290 | 1.6 | 4.8 | 0.03 | 0.91 | 0.66 | 90 | 1003.4 |
| 20260506203052 | 15 | 94 | 0.0 | 1.6 | 0.05 | 0.91 | 0.66 | 91 | 1003.4 |
| 20260506201551 | 15 | 91 | 0.0 | 1.6 | 0.05 | 0.89 | 0.64 | 91 | 1003.5 |
| 20260506200051 | 16 | 91 | 0.0 | 0.0 | 0.08 | 0.89 | 0.64 | 91 | 1003.6 |
| 20260506194550 | 15 | 91 | 0.0 | 3.2 | 0.10 | 0.89 | 0.64 | 91 | 1003.8 |
| 20260506193046 | 16 | 137 | 0.0 | 0.0 | 0.13 | 0.86 | 0.61 | 91 | 1003.9 |
| 20260506191543 | 15 | 100 | 0.0 | 0.0 | 0.15 | 0.84 | 0.58 | 91 | 1004.1 |
| 20260506190041 | 15 | 128 | 0.0 | 1.6 | 0.20 | 0.81 | 0.56 | 91 | 1004.3 |
| 20260506184540 | 15 | 139 | 0.0 | 1.6 | 0.25 | 0.79 | 0.53 | 91 | 1004.5 |
| 20260506183039 | 15 | 104 | 0.0 | 4.8 | 0.28 | 0.71 | 0.48 | 91 | 1004.5 |
| 20260506181537 | 15 | 164 | 0.0 | 6.4 | 0.28 | 0.69 | 0.43 | 91 | 1004.6 |
| 20260506180040 | 15 | 110 | 0.0 | 11.3 | 0.23 | 0.61 | 0.36 | 91 | 1004.7 |
| 20260506174533 | 15 | 138 | 0.0 | 3.2 | 0.18 | 0.53 | 0.28 | 91 | 1005.0 |
| 20260506173038 | 15 | 136 | 0.0 | 1.6 | 0.13 | 0.46 | 0.20 | 91 | 1005.2 |
| 20260506171530 | 15 | 278 | 0.0 | 0.0 | 0.10 | 0.41 | 0.15 | 92 | 1005.2 |
| 20260506170027 | 14 | 278 | 0.0 | 3.2 | 0.08 | 0.38 | 0.13 | 91 | 1005.4 |
| 20260506164525 | 13 | 291 | 0.0 | 3.2 | 0.08 | 0.36 | 0.10 | 90 | 1005.6 |
| 20260506163027 | 14 | 290 | 0.0 | 1.6 | 0.08 | 0.33 | 0.08 | 89 | 1005.7 |
| 20260506161527 | 15 | 323 | 0.0 | 0.0 | 0.05 | 0.30 | 0.05 | 89 | 1005.7 |
| 20260506160021 | 15 | 323 | 0.0 | 0.0 | 0.05 | 0.30 | 0.05 | 88 | 1006.1 |
| 20260506154519 | 14 | 323 | 0.0 | 0.0 | 0.03 | 0.28 | 0.03 | 88 | 1006.5 |
| 20260506153016 | 14 | 323 | 0.0 | 0.0 | 0.00 | 0.25 | 0.00 | 87 | 1006.9 |
| 20260506151516 | 14 | 323 | 0.0 | 3.2 | 0.00 | 0.25 | 0.00 | 87 | 1007.1 |
| 20260506150017 | 14 | 311 | 8.0 | 9.7 | 0.00 | 0.25 | 0.00 | 85 | 1006.9 |
| 20260506144514 | 14 | 296 | 4.8 | 4.8 | 0.00 | 0.25 | 0.00 | 85 | 1006.8 |
| 20260506143015 | 14 | 300 | 1.6 | 3.2 | 0.00 | 0.25 | 0.00 | 85 | 1006.9 |
| 20260506141513 | 14 | 293 | 0.0 | 1.6 | 0.00 | 0.25 | 0.00 | 84 | 1007.0 |
| 20260506140013 | 14 | 293 | 1.6 | 4.8 | 0.00 | 0.25 | 0.00 | 85 | 1007.0 |
| 20260506134510 | 13 | 319 | 0.0 | 1.6 | 0.00 | 0.25 | 0.00 | 88 | 1006.9 |
| 20260506133013 | 13 | 5 | 0.0 | 0.0 | 0.00 | 0.25 | 0.00 | 88 | 1007.0 |
| 20260506131513 | 13 | 357 | 1.6 | 3.2 | 0.00 | 0.25 | 0.00 | 87 | 1007.3 |
| 20260506130013 | 13 | 294 | 0.0 | 1.6 | 0.00 | 0.25 | 0.00 | 91 | 1007.8 |
| 20260506124507 | 12 | 282 | 3.2 | 11.3 | 0.00 | 0.25 | 0.00 | 91 | 1007.4 |
| 20260506123007 | 12 | 300 | 3.2 | 4.8 | 0.00 | 0.25 | 0.00 | 91 | 1007.5 |
| 20260506121505 | 12 | 322 | 3.2 | 6.4 | 0.00 | 0.25 | 0.00 | 93 | 1007.4 |
| 20260506120005 | 12 | 257 | 0.0 | 1.6 | 0.00 | 0.25 | 0.00 | 93 | 1007.5 |
| 20260506114503 | 12 | 288 | 0.0 | 0.0 | 0.00 | 0.25 | 0.00 | 93 | 1007.5 |
| 20260506113005 | 11 | 288 | 0.0 | 1.6 | 0.00 | 0.25 | 0.00 | 93 | 1007.7 |
| 20260506111502 | 11 | 253 | 0.0 | 0.0 | 0.00 | 0.25 | 0.00 | 93 | 1007.6 |
| 20260506110002 | 11 | 255 | 0.0 | 0.0 | 0.00 | 0.25 | 0.00 | 93 | 1007.8 |
| 20260506104602 | 11 | 255 | 0.0 | 0.0 | 0.00 | 0.25 | 0.00 | 93 | 1007.7 |
| 20260506103101 | 10 | 193 | 0.0 | 0.0 | 0.00 | 0.25 | 0.00 | 93 | 1007.8 |
| 20260506101600 | 10 | 193 | 0.0 | 0.0 | 0.00 | 0.25 | 0.00 | 93 | 1007.8 |
| 20260506100059 | 10 | 193 | 0.0 | 0.0 | 0.00 | 0.25 | 0.00 | 93 | 1007.6 |
| 20260506094558 | 10 | 193 | 0.0 | 0.0 | 0.00 | 0.25 | 0.00 | 93 | 1007.6 |
| 20260506093055 | 11 | 193 | 0.0 | 0.0 | 0.00 | 0.25 | 0.00 | 93 | 1007.6 |
| 20260506091554 | 11 | 193 | 0.0 | 0.0 | 0.00 | 0.25 | 0.00 | 93 | 1007.6 |
| 20260506090152 | 11 | 193 | 0.0 | 0.0 | 0.00 | 0.25 | 0.00 | 93 | 1007.7 |
| 20260506084549 | 11 | 193 | 0.0 | 0.0 | 0.00 | 0.25 | 0.00 | 93 | 1007.8 |
| 20260506081550 | 12 | 150 | 0.0 | 0.0 | 0.00 | 0.25 | 0.00 | 92 | 1007.9 |
| 20260506073041 | 12 | 150 | 0.0 | 0.0 | 0.00 | 0.25 | 0.00 | 91 | 1007.9 |
| 20260506071548 | 13 | 150 | 0.0 | 0.0 | 0.00 | 0.25 | 0.00 | 91 | 1008.0 |
| 20260506061535 | 14 | 279 | 1.6 | 8.0 | 0.00 | 0.25 | 0.00 | 92 | 1007.7 |
| 20260506044535 | 13 | 284 | 0.0 | 1.6 | 0.00 | 0.25 | 0.00 | 92 | 1007.7 |
| 20260506043025 | 13 | 291 | 4.8 | 8.0 | 0.00 | 0.25 | 0.00 | 92 | 1007.4 |
| 20260506041525 | 13 | 288 | 0.0 | 0.0 | 0.00 | 0.25 | 0.00 | 92 | 1007.6 |
| 20260506040021 | 13 | 288 | 0.0 | 1.6 | 0.00 | 0.25 | 0.00 | 92 | 1007.6 |
| 20260506034520 | 13 | 288 | 0.0 | 3.2 | 0.00 | 0.25 | 0.25 | 92 | 1007.5 |
| 20260506033019 | 13 | 293 | 0.0 | 1.6 | 0.00 | 0.25 | 0.25 | 92 | 1007.3 |
| 20260506031523 | 13 | 293 | 0.0 | 3.2 | 0.00 | 0.25 | 0.25 | 92 | 1007.5 |
| 20260506030020 | 13 | 293 | 0.0 | 3.2 | 0.00 | 0.25 | 0.25 | 92 | 1007.5 |
| 20260506024521 | 13 | 289 | 0.0 | 3.2 | 0.00 | 0.25 | 0.25 | 92 | 1007.6 |
| 20260506023017 | 13 | 289 | 0.0 | 0.0 | 0.00 | 0.25 | 0.25 | 92 | 1007.3 |
| 20260506021516 | 13 | 289 | 0.0 | 1.6 | 0.00 | 0.25 | 0.25 | 92 | 1007.4 |
| 20260506020016 | 13 | 289 | 0.0 | 0.0 | 0.00 | 0.25 | 0.25 | 92 | 1007.2 |
| 20260506014515 | 13 | 269 | 0.0 | 0.0 | 0.00 | 0.25 | 0.25 | 92 | 1007.1 |
| 20260506013018 | 13 | 176 | 0.0 | 0.0 | 0.00 | 0.25 | 0.25 | 92 | 1007.0 |
| 20260506011517 | 13 | 162 | 0.0 | 0.0 | 0.00 | 0.25 | 0.25 | 92 | 1006.9 |
| 20260506010014 | 14 | 162 | 0.0 | 0.0 | 0.00 | 0.25 | 0.25 | 91 | 1006.9 |
| 20260506004513 | 14 | 161 | 0.0 | 3.2 | 0.00 | 0.25 | 0.25 | 91 | 1006.7 |
| 20260506003013 | 15 | 241 | 0.0 | 0.0 | 0.00 | 0.25 | 0.25 | 91 | 1006.7 |
| 20260506001515 | 15 | 244 | 0.0 | 1.6 | 0.00 | 0.25 | 0.25 | 90 | 1006.6 |